Вернуться в каталог

CZ-6A DEB

АктивенSSO
NORAD 56630·DEBRIS·🇨🇳 China

Запущен Nov 11, 2022 с Taiyuan Satellite Launch Center

Loading…

Ближайшие Пролёты (ближайшие 24 часа)

TLE

УстаревающийSource: Space-Track

Эпоха: Sep 10, 2026, 05:18 UTC

1 56630U 22151AFE 26253.22138496  .00001013  00000-0  55281-3 0  9993
2 56630  98.8478 253.1324 0054160  97.1303 263.6032 14.13580286173961

Отслеживайте CZ-6A DEB в реальном времени с AllMySat

Download on the App Store